Погода в Эдигане

Россия / Республика Алтай     51°06′34″N   86°15′40″E
темп.,
°C
ветер,
м/с
пор.,
м/с
влажн.,
%
обл.,
%
осадки,
мм/ч
давл.,
гПа
погр.,
м
29 июля, чт
чт2901:00+6с11988 0.0 101211
04:00+5ююв019824 0.0 101210
07:00+7ююв11946 0.0 101168
10:00+15юз116111 0.0 1009764
13:00+20ссз114411 0.0 10061589
16:00+20с2238100 0.0 10061794
19:00+18ссз2458100 0.0 1006478
22:00+11с2289100 0.0 100831
30 июля, пт
пт3001:00+9ссз119799 0.0 100814
04:00+8ю019798 0.0 100810
07:00+10ююз019191 0.0 100956
10:00+16сз2265100 0.0 1009664
13:00+17с2263100 1.0 1009757
16:00+16ссз2376100 1.4 1011625
19:00+14ссз228984 2.4 1013123
22:00+10ссз119592 0.2 101613
31 июля, сб
сб3101:00+8ююз009799 0.3 101710
04:00+9з119698 0.0 101713
07:00+9ю11964 0.0 101842
10:00+16зсз016618 0.0 1016831
13:00+19сз224540 0.1 10141919
16:00+21ссз22372 0.0 10121869
19:00+19ссз23523 0.0 1012562
22:00+10с11860 0.0 101610
1 августа, вс
вс101:00+8ююв11923 0.0 101610
04:00+7ююв22955 0.0 101623
07:00+8ююв238838 0.0 101681
10:00+17ю11555 0.0 1014586
13:00+22ссз113871 0.0 10121889
16:00+21ссз223874 0.0 10112042
19:00+19сз225942 0.0 1011273
22:00+12с0085100 0.0 101310
2 августа, пн
пн201:00+10ююв11906 0.0 101311
04:00+8ююв22930 0.0 101430
07:00+10ююв23880 0.0 101487
10:00+18ю22542 0.0 1011555
13:00+25юз12355 0.0 10091669
16:00+26зсз13295 0.0 10072523
19:00+22с22540 0.0 100774
22:00+14ссз01760 0.0 101011